Regional Weather Roundup
Issued by NWS Portland, ME

Current Version | Previous Version | Text Only | Print | Product List | Glossary Off
Versions: 1 2 3 4 5 6 7 8 9 10 11 12 13 14 15 16 17 18 19 20 21 22 23 24 25 26 27 28 29 30 31 32 33 34 35 36 37 38 39 40 41 42 43 44 45 46 47 48 49 50
000 ASUS41 KGYX 231510 RWRGYX WEATHER ROUNDUP FOR MAINE AND NEW HAMPSHIRE NATIONAL WEATHER SERVICE GRAY ME 1000 AM EST TUE JAN 23 2018 MEZ002-005-006-010-012-015-018-020-021-024-026-027-029-231600- MAINE CITY SKY/WX TMP DP RH WIND PRES REMARKS PORTLAND FRZ DRZL 25 25 100 N6 29.90F SANFORD LGT SNOW 25 25 100 N9 29.87F VSB 1 BAR HARBOR RAIN 39 38 96 E5 29.96F VSB 1 WISCASSET CLOUDY 28 28 100 CALM 29.89F FOG ROCKLAND LGT RAIN 40 40 100 E9 29.90F VSB 1/4 FRYEBURG FRZ RAIN 26 26 100 E3 29.88F FOG LEWISTONAUBURN MIX PCPN 21 21 100 N7 29.91F FOG AUGUSTA FRZ RAIN 22 21 96 N9 29.90F WATERVILLE MIX PCPN 22 20 92 N14G23 29.87F WCI 9 BANGOR FRZ DRZL 27 26 96 N6 29.93F FOG GREENVILLE N/A 22 22 100 SE10 29.83F WCI 11 MILLINOCKET MIX PCPN 16 14 92 NE7 30.00F VSB 1/2 HOULTON MIX PCPN 18 15 88 CALM 30.01F VSB 3/4 PRESQUE ISLE LGT SNOW 16 12 84 NE12 30.03F FOG WCI 3 FRENCHVILLE SNOW 8 5 87 E13G21 30.00F VSB 1/2 WCI -8 CARIBOU SNOW 15 11 83 E9 30.02F VSB 1/2 $$ NHZ002-005-008-009-011-012-014-231600- NEW HAMPSHIRE CITY SKY/WX TMP DP RH WIND PRES REMARKS PORTSMOUTH FRZ RAIN 26 25 96 CALM 29.86F VSB 5/8 ROCHESTER FOG 26 26 100 N8 29.86F VSB 1 NASHUA LGT SNOW 30 30 100 CALM 29.85F FOG MANCHESTER FRZ RAIN 29 27 92 NE8 29.83F FOG CONCORD FRZ RAIN 29 27 92 NE5 29.84F FOG LACONIA LGT SNOW 29 28 96 NE10 29.84F FOG WCI 20 PLYMOUTH LGT SNOW 31 29 95 CALM 29.84F BERLIN FRZ RAIN 30 28 92 VRB5 29.78F FOG WHITEFIELD RAIN 36 35 96 NW6 29.72F FOG JAFFREY FRZ RAIN 32 32 100 N6 29.77F FOG KEENE LGT SNOW 32 31 96 N3 29.76F FOG LEBANON RAIN 33 32 96 CALM 29.77F FOG MT WASHINGTON FRZ RAIN 32 32 100 S43G54 N/A VSB 0 WCI 15 $$ VTZ005-007-008-231600- VERMONT CITY SKY/WX TMP DP RH WIND PRES REMARKS ST JOHNSBURY N/A 33 33 100 MISG 29.74F MONTPELIER RAIN 33 33 100 VRB5 29.75F FOG BURLINGTON LGT RAIN 37 35 92 CALM 29.65F $$ MAZ007-012-024-CTZ003-RIZ002-NYZ038-NYZ072-231600- SOUTHERN NEW ENGLAND AND NY CITY SKY/WX TMP DP RH WIND PRES REMARKS BOSTON RAIN 33 33 100 N6 29.84F VSB 1/4 WORCESTER FRZ RAIN 31 29 92 NE8 29.77F VSB 1/4 NANTUCKET FOG 47 47 100 S22 29.90F VSB 1/4 PROVIDENCE LGT RAIN 42 42 100 SE7 29.81F VSB 1/4 HARTFORD LGT RAIN 35 35 100 N7 29.75F FOG ALBANY LGT RAIN 42 39 89 S12 29.67F FOG NEW YORK CITY RAIN 52 51 97 S14 29.70F FOG $$ ANZ081-ANZ082-ANZ150-NHZ014-MEZ023>029-231600- COASTAL MARINE OBSERVATIONS STATION/POSITION TIME TEMP WIND PRES WAVE AIR SEA DIR/SP/G HT/PER (UTC) (F) (DEG/KT/KT) (MB) (FT/S) MOUNT DESERT ROC 1500 47 120/ 23/ 25 1013.9F MATINICUS ROCK 1400 45 130/ 14/ 15 1013.5F ISLE OF SHOALS 1400 29 10/ 2/ 2 1011.9F JEFFREYS LEDGE 1436 43 N/A 6/ 7 GEORGES BANK BUO 1350 47 52 1025.7 5/ 5 $$ .............KEY.............. WCI - WIND CHILL TC - TEMPERATURE IN CELSIUS VSB - VISIBILITY IN MILES HX - HEAT INDEX FAIR- INDICATES FEW OR NO CLOUDS BELOW 12,000 FT, WITH NO SIGNIFICANT WEATHER AND/OR OBSTRUCTIONS TO VISIBILITY.

USA.gov is the U.S. government's official web portal to all federal, state and local government web resources and services.